����27�N�x�@��C��������Ԃɂ�鑪�茋��,,,,,,,,,,,,,,
,,,,,,,,,,,,,,
�P�@����n�_,,,,,,,,,,,,,,
�ɓ�s�l�c�i�ɓ�s�l�c��4����203�|2),,,,,,,,,,,,,,
,,,,,,,,,,,,,,
�Q�@���Ԓl�i�m��l�j������27�N5��14���`����27�N6��5��,,,,,,,,,,,,,,
,,,,,,,,,,,,,,
,�N,��,��,��,SO2,SPM,Ox,CO,NO,NO2,���x,���x,����,����
,,,,,ppm,mg/m3,ppm,ppm,ppm,ppm,��,%,�P�U����,m/s
H01,2015,5,14,1,***,0.046,0.012,***,***,***,18.3,56.3,ENE,0.4
H01,2015,5,14,2,0.002,0.06,0.011,0.5,***,***,17.8,60.5,NNE,0.6
H01,2015,5,14,3,0.002,0.058,0.007,0.5,0.009,0.037,16.7,64,ENE,0.4
H01,2015,5,14,4,0.003,0.063,0.005,0.4,0.021,0.036,16.7,66,NNW,1
H01,2015,5,14,5,0.002,0.049,0.007,0.4,0.022,0.037,16.5,65.1,N,0.6
H01,2015,5,14,6,0.001,0.057,0.008,0.5,0.025,0.041,17.1,63.9,N,1.6
H01,2015,5,14,7,0.003,0.044,0.009,0.6,0.044,0.043,20,56.8,NNW,1
H01,2015,5,14,8,0.003,0.052,0.017,0.7,0.036,0.039,21.6,50.7,CALM,0.1
H01,2015,5,14,9,0.007,0.088,0.023,0.8,0.027,0.044,22.2,50.3,SW,0.4
H01,2015,5,14,10,0.008,0.061,0.037,0.9,0.025,0.046,24.6,43.6,WNW,0.6
H01,2015,5,14,11,0.006,0.038,0.064,0.4,0.006,0.018,25.4,28.1,SW,1
H01,2015,5,14,12,0.005,0.046,0.071,0.3,0.003,0.013,26.2,32.2,SW,1.2
H01,2015,5,14,13,0.003,0.033,0.082,0.4,0,0.008,25.1,39.8,SSW,1.4
H01,2015,5,14,14,0.002,0.048,0.081,0.3,0,0.006,24.3,40.5,SSW,1.4
H01,2015,5,14,15,0.003,0.045,0.077,0.2,0,0.008,22.8,46.5,SSW,1.6
H01,2015,5,14,16,0.004,0.061,0.071,0.2,0,0.015,22.2,70.6,S,1.2
H01,2015,5,14,17,0.003,0.068,0.068,0.2,0,0.01,21.9,70.3,SSW,0.7
H01,2015,5,14,18,0.002,0.074,0.067,0.2,0,0.009,21.6,71.7,SSW,0.6
H01,2015,5,14,19,0.008,0.041,0.05,0.3,0.001,0.022,22.2,51.8,CALM,0.2
H01,2015,5,14,20,0.003,0.044,0.046,0.4,0.003,0.022,21.8,54.6,CALM,0.2
H01,2015,5,14,21,0.009,0.045,0.039,0.3,0.001,0.024,21.6,58.1,CALM,0
H01,2015,5,14,22,0.004,0.055,0.022,0.3,0.003,0.039,19.5,76.3,CALM,0.1
H01,2015,5,14,23,0.008,0.051,0.026,0.4,0.004,0.027,19.4,74.7,CALM,0
H01,2015,5,14,24,0.002,0.059,0.013,0.4,0.006,0.04,19.4,76.1,CALM,0
H01,2015,5,15,1,0.006,0.058,0.019,0.5,0.005,0.026,19.4,76.8,CALM,0.1
H01,2015,5,15,2,0.003,0.059,0.017,0.5,0.003,0.025,19.2,78.7,CALM,0.1
H01,2015,5,15,3,0.005,0.054,0.016,0.6,0.008,0.021,20.1,75.5,NE,0.8
H01,2015,5,15,4,0.003,0.07,0.007,0.6,0.011,0.029,19.8,74.3,N,2
H01,2015,5,15,5,0.002,0.05,0.003,0.5,0.012,0.036,19.2,75.7,CALM,0
H01,2015,5,15,6,0.002,0.067,0.003,0.5,0.017,0.039,19.8,74,SW,0.3
H01,2015,5,15,7,0.004,0.06,0.019,0.4,0.005,0.024,19.8,77.7,CALM,0.2
H01,2015,5,15,8,0.005,0.047,0.02,0.5,0.021,0.035,21.8,66.2,SW,0.3
H01,2015,5,15,9,0.009,0.067,0.023,0.8,0.022,0.035,23,58.7,SW,0.4
H01,2015,5,15,10,0.008,0.061,0.039,0.8,0.008,0.025,24.6,59.3,S,0.7
H01,2015,5,15,11,0.006,0.042,0.055,0.6,0.003,0.012,25.5,57.7,S,1.3
H01,2015,5,15,12,0.003,0.05,0.06,0.4,0,0.004,26,63.7,SSW,1.6
H01,2015,5,15,13,0.002,0.05,0.067,0.3,0,0.004,25.9,63.2,SSW,1.3
H01,2015,5,15,14,0.002,0.056,0.056,0.3,0,0.004,25.5,68.3,S,2.2
H01,2015,5,15,15,0.001,0.048,0.044,0.3,0.001,0.004,25.6,69.6,SSE,2.6
H01,2015,5,15,16,0.001,0.049,0.04,0.2,0.001,0.004,24.9,72.3,S,1.7
H01,2015,5,15,17,0.001,0.04,0.036,0.2,0.001,0.005,24.3,75.6,SSE,1.9
H01,2015,5,15,18,0,0.037,0.032,0.2,0.001,0.006,23.3,79.2,SE,2.3
H01,2015,5,15,19,0,0.037,0.029,0.2,0.001,0.006,22.5,82.2,SSE,1.7
H01,2015,5,15,20,0,0.027,0.028,0.2,0.001,0.006,22.4,83.9,SE,2.4
H01,2015,5,15,21,0,0.035,0.026,0.2,0.002,0.006,22.4,85.8,SE,1.6
H01,2015,5,15,22,0,0.036,0.026,0.2,0.002,0.006,22.7,85.5,SE,1.9
H01,2015,5,15,23,0,0.038,0.026,0.2,0.003,0.007,22.4,86.1,SE,1.9
H01,2015,5,15,24,0,0.041,0.024,0.2,0.002,0.007,21.9,87.3,SE,1.2
H01,2015,5,16,1,0.001,0.039,0.021,0.2,0.002,0.007,21.7,88,SE,1.3
H01,2015,5,16,2,0.002,0.044,0.014,0.2,0,0.01,21,89.1,SSE,0.9
H01,2015,5,16,3,0.002,0.049,0.011,0.2,0.001,0.012,20.4,91,S,0.8
H01,2015,5,16,4,0.001,0.043,0.009,0.2,0,0.012,20.3,92.6,CALM,0.1
H01,2015,5,16,5,0.001,0.044,0.009,0.2,0.002,0.011,20.4,93.6,SSW,0.3
H01,2015,5,16,6,0.001,0.031,0.008,0.2,0.002,0.013,20.3,93.9,S,0.5
H01,2015,5,16,7,0.001,0.031,0.008,0.2,0.003,0.011,20.6,94.4,CALM,0
H01,2015,5,16,8,0.001,0.042,0.004,0.4,0.019,0.02,21,94.7,CALM,0
H01,2015,5,16,9,0.001,0.04,0.01,0.4,0.012,0.025,21.2,94.9,SW,0.3
H01,2015,5,16,10,0.001,0.024,0.043,0.4,0.004,0.02,19.8,93.9,SW,0.8
H01,2015,5,16,11,0.001,0.04,0.05,0.4,0.003,0.018,20.7,87.9,SW,0.4
H01,2015,5,16,12,0.001,0.046,0.053,0.5,0.005,0.019,23,80.3,WSW,0.4
H01,2015,5,16,13,0.001,0.058,0.053,0.4,0.005,0.02,22.9,69.5,SW,0.7
H01,2015,5,16,14,0.001,0.032,0.056,0.6,0.002,0.012,22.4,70.3,SW,0.9
H01,2015,5,16,15,0.001,0.041,0.056,0.4,0.001,0.012,22.7,68.5,SW,0.5
H01,2015,5,16,16,0.001,0.046,0.056,0.4,0.002,0.013,22.7,65.4,SW,0.8
H01,2015,5,16,17,0.001,0.051,0.054,0.4,0.001,0.011,22.2,66.1,SW,0.5
H01,2015,5,16,18,0.001,0.048,0.054,0.4,0.001,0.011,21.6,65.3,SW,0.5
H01,2015,5,16,19,0.001,0.068,0.056,0.4,0,0.011,20.9,67.6,SW,0.4
H01,2015,5,16,20,0.001,0.073,0.058,0.4,0,0.009,20.4,66.5,WSW,0.3
H01,2015,5,16,21,0,0.067,0.056,0.4,0,0.009,19.5,68.4,CALM,0.1
H01,2015,5,16,22,0.001,0.066,0.052,0.4,0,0.01,18.8,67.8,CALM,0.2
H01,2015,5,16,23,0.001,0.05,0.051,0.4,0,0.01,18.2,71.6,WNW,0.3
H01,2015,5,16,24,0.001,0.048,0.051,0.3,0,0.008,17.9,70.2,NW,1.2
H01,2015,5,17,1,0.002,0.042,0.05,0.4,0,0.008,18.1,63.7,NNW,1.7
H01,2015,5,17,2,0.004,0.044,0.049,0.8,0,0.012,17.9,60.9,NW,0.7
H01,2015,5,17,3,0.003,0.049,0.049,0.7,0,0.012,17.1,60,CALM,0.2
H01,2015,5,17,4,0.001,0.038,0.051,0.2,0,0.007,16.7,61.6,WNW,0.4
H01,2015,5,17,5,0.001,0.037,0.049,0.2,0,0.007,16.7,60,WSW,0.3
H01,2015,5,17,6,0.002,0.03,0.038,0.4,0.001,0.016,17.2,62.1,WNW,0.4
H01,2015,5,17,7,0.004,0.032,0.037,0.8,0.002,0.015,18.6,56.3,NW,0.7
H01,2015,5,17,8,0.007,0.048,0.032,1.5,0.006,0.022,21.2,43.7,NW,1.1
H01,2015,5,17,9,0.007,0.024,0.039,1.2,0.005,0.02,23.3,35.4,NNW,1.4
H01,2015,5,17,10,0.007,0.05,0.043,1.2,0.005,0.017,25.2,22.3,NW,1.2
H01,2015,5,17,11,0.004,0.032,0.05,0.7,0.003,0.011,25.8,20.3,WNW,0.9
H01,2015,5,17,12,0.003,0.025,0.054,0.6,0.002,0.008,27.2,18.5,NW,1.3
H01,2015,5,17,13,0.002,0.026,0.055,0.5,0.002,0.008,28.1,17.9,WNW,1
H01,2015,5,17,14,0.001,0.019,0.055,0.4,0.002,0.008,28.1,15.2,NW,1.4
H01,2015,5,17,15,0.001,0.031,0.058,0.4,0.001,0.006,27.5,21.6,WSW,0.6
H01,2015,5,17,16,0.005,0.035,0.056,0.3,0.001,0.011,26.9,22.8,SW,1.2
H01,2015,5,17,17,0.002,0.029,0.062,0.3,0,0.006,26.4,26.5,SW,0.8
H01,2015,5,17,18,0.002,0.03,0.059,0.3,0,0.006,23.5,45.4,SE,2.3
H01,2015,5,17,19,0.001,0.039,0.067,0.4,0,0.005,21.3,69.5,S,1.7
H01,2015,5,17,20,0.001,0.045,0.063,0.4,0,0.005,20.7,74.2,SSE,2.2
H01,2015,5,17,21,0.001,0.051,0.063,0.4,0,0.006,20.3,75.6,SSE,2
H01,2015,5,17,22,0.002,0.047,0.061,0.4,0,0.006,19.8,77.8,SSE,1.3
H01,2015,5,17,23,0.002,0.067,0.054,0.4,0,0.008,19.5,81.2,SSE,0.8
H01,2015,5,17,24,0.003,0.058,0.048,0.3,0,0.008,19.2,83.1,SSE,0.6
H01,2015,5,18,1,0.002,0.05,0.046,0.3,0,0.007,19,85.2,S,0.4
H01,2015,5,18,2,0.002,0.063,0.045,0.3,0,0.007,18.7,86.7,CALM,0
H01,2015,5,18,3,0.001,0.056,0.029,0.3,0.005,0.015,19.2,77.5,N,0.7
H01,2015,5,18,4,0.001,0.044,0.026,0.4,0.003,0.014,17.9,73.4,CALM,0.1
H01,2015,5,18,5,0.001,0.053,0.011,0.4,0.021,0.025,18.3,75.2,CALM,0.1
H01,2015,5,18,6,0.002,0.048,0.011,0.6,0.029,0.031,19,71.9,CALM,0.2
H01,2015,5,18,7,0.001,0.052,0.017,0.7,0.02,0.026,19.5,70.9,CALM,0.2
H01,2015,5,18,8,0.002,0.037,0.031,0.6,0.004,0.013,20.6,69.9,S,0.5
H01,2015,5,18,9,0.002,0.059,0.039,0.4,0.003,0.012,21.9,70.7,SSW,1
H01,2015,5,18,10,0.001,0.046,0.055,0.3,0.001,0.006,22.8,67.8,S,1.8
H01,2015,5,18,11,0.001,0.051,0.055,0.3,0,0.004,22.7,71.3,SSE,2.9
H01,2015,5,18,12,0.001,0.055,0.059,0.3,0,0.003,23.2,68.1,S,2.8
H01,2015,5,18,13,0.001,0.058,0.061,0.3,0,0.003,22.8,69.3,S,2.3
H01,2015,5,18,14,0,0.057,0.059,0.3,0,0.002,21.6,71,S,2.4
H01,2015,5,18,15,0.001,0.049,0.059,0.3,0.001,0.003,22.1,65.2,S,2.5
H01,2015,5,18,16,0,0.057,0.062,0.3,0,0.002,21.2,70.8,SSE,2.7
H01,2015,5,18,17,0,0.051,0.057,0.4,0,0.004,20.6,73.2,SSE,3.1
H01,2015,5,18,18,0,0.047,0.058,0.3,0,0.004,19.8,76.7,SSE,3
H01,2015,5,18,19,0,0.049,0.057,0.3,0,0.003,20.2,80.6,SSE,3.1
H01,2015,5,18,20,0.001,0.05,0.052,0.3,0,0.005,19.8,84.7,SSE,2.3
H01,2015,5,18,21,0,0.06,0.049,0.4,0.001,0.007,19.5,87.3,SE,2.8
H01,2015,5,18,22,0,0.049,0.047,0.3,0.001,0.009,18.7,90.3,SE,2
H01,2015,5,18,23,0,0.036,0.05,0.3,0.001,0.006,17.9,86.2,SE,2.6
H01,2015,5,18,24,0,0.035,0.053,0.2,0,0.005,17.1,89.7,SE,3
H01,2015,5,19,1,0,0.029,0.051,0.4,0.001,0.006,16.9,91.6,SE,1.9
H01,2015,5,19,2,0,0.036,0.051,0.5,0,0.005,17.1,92.6,SE,1.6
H01,2015,5,19,3,0,0.032,0.045,0.5,0.001,0.008,18,93.5,SE,1.3
H01,2015,5,19,4,0,0.031,0.041,0.5,0.003,0.008,17.9,93.2,WNW,0.5
H01,2015,5,19,5,0.001,0.046,0.028,0.7,0.006,0.018,17.9,93.3,N,2
H01,2015,5,19,6,0.002,0.045,0.022,0.8,0.013,0.023,18,92.9,ENE,1.3
H01,2015,5,19,7,0.001,0.026,0.021,0.7,0.018,0.025,18.1,92.4,NNW,1.1
H01,2015,5,19,8,0.001,0.035,0.012,0.8,0.026,0.037,18.3,92.7,CALM,0.2
H01,2015,5,19,9,0.001,0.029,0.009,0.8,0.039,0.033,18.7,93.6,NNW,0.3
H01,2015,5,19,10,0.001,0.027,0.012,0.8,0.04,0.037,19.4,93.6,CALM,0.1
H01,2015,5,19,11,0.002,0.045,0.014,0.8,0.039,0.036,21.9,89.1,NW,0.8
H01,2015,5,19,12,0.005,0.059,0.015,1,0.03,0.039,22.6,81.9,NNW,1.4
H01,2015,5,19,13,0.008,0.069,0.019,1.2,0.026,0.043,23.1,78.5,WNW,0.5
H01,2015,5,19,14,0.006,0.055,0.03,1,0.017,0.027,24.2,70.2,WSW,0.6
H01,2015,5,19,15,0.006,0.044,0.034,0.8,0.011,0.025,24.8,66.9,SW,0.4
H01,2015,5,19,16,0.005,0.027,0.033,0.7,0.012,0.029,25.7,63.1,NW,0.5
H01,2015,5,19,17,0.003,0.018,0.036,0.7,0.011,0.023,25.7,58.9,SW,0.5
H01,2015,5,19,18,0.003,0.02,0.035,0.5,0.006,0.023,24.9,62.8,W,0.5
H01,2015,5,19,19,0.002,0.027,0.039,0.4,0.002,0.021,23.7,67.7,CALM,0.2
H01,2015,5,19,20,0.02,0.046,0.031,0.5,0.005,0.032,22.9,71.6,SW,0.5
H01,2015,5,19,21,0.019,0.053,0.023,0.7,0.002,0.036,21.6,70.7,CALM,0.1
H01,2015,5,19,22,0.002,0.029,0.022,0.4,0.003,0.029,20.7,67.2,CALM,0.1
H01,2015,5,19,23,0.002,0.038,0.027,0.4,0.001,0.02,19.6,67.3,CALM,0
H01,2015,5,19,24,0.005,0.042,0.021,0.4,0.004,0.025,18.9,72.2,CALM,0
H01,2015,5,20,1,0.003,0.053,0.016,0.4,0.004,0.031,18.4,72.8,CALM,0
H01,2015,5,20,2,0.003,0.041,0.01,0.4,0.011,0.033,17.9,74.8,CALM,0
H01,2015,5,20,3,0.004,0.043,0.002,0.5,0.037,0.039,16.9,80,CALM,0
H01,2015,5,20,4,0.004,0.055,0.001,0.5,0.028,0.039,16.8,81.5,CALM,0
H01,2015,5,20,5,0.002,0.037,0.002,0.5,0.017,0.033,16.7,81.5,CALM,0
H01,2015,5,20,6,0.003,0.047,0.004,0.7,0.037,0.031,18.4,77.7,NNW,0.4
H01,2015,5,20,7,0.005,0.06,0.006,0.8,0.059,0.04,19.8,71.2,CALM,0.1
H01,2015,5,20,8,0.003,0.036,0.01,0.7,0.031,0.027,21.9,69,NNW,1.3
H01,2015,5,20,9,0.002,0.055,0.016,0.6,0.023,0.024,23.7,61.8,NNW,0.6
H01,2015,5,20,10,0.001,0.039,0.024,0.4,0.019,0.022,24.2,59.7,SW,0.3
H01,2015,5,20,11,0.002,0.041,0.032,0.4,0.016,0.021,26.6,51.3,SW,0.4
H01,2015,5,20,12,0.005,0.046,0.035,0.6,0.015,0.032,28.1,39.2,NNW,0.7
H01,2015,5,20,13,0.007,0.047,0.043,0.6,0.013,0.03,29,38.6,NW,0.9
H01,2015,5,20,14,0.003,0.039,0.054,0.4,0.01,0.026,30,31.9,NNW,1.6
H01,2015,5,20,15,0.002,0.041,0.063,0.4,0.006,0.022,30,34.5,NNW,1.7
H01,2015,5,20,16,0.002,0.038,0.066,0.3,0.005,0.025,29.1,38.8,W,0.7
H01,2015,5,20,17,0.001,0.048,0.061,0.3,0.003,0.017,26.7,44.2,WNW,1
H01,2015,5,20,18,0.003,0.055,0.057,0.5,0.002,0.02,25.8,44.6,NNW,2.6
H01,2015,5,20,19,0.004,0.053,0.057,1,0.002,0.019,23.7,47.8,NNW,2.1
H01,2015,5,20,20,0.006,0.047,0.052,1.1,0.001,0.018,22.6,51,NW,1.5
H01,2015,5,20,21,0.004,0.06,0.053,0.9,0.001,0.016,21.6,46.7,NW,2.4
H01,2015,5,20,22,0.002,0.039,0.059,0.6,0.001,0.01,20.7,44.1,NW,2.2
H01,2015,5,20,23,0.002,0.042,0.058,0.5,0.001,0.011,19.5,42.1,NNW,3.7
H01,2015,5,20,24,0.002,0.035,0.055,0.6,0.001,0.011,17.1,55.2,NNW,2.3
H01,2015,5,21,1,***,0.041,0.051,***,***,***,13.7,82.3,N,3
H01,2015,5,21,2,0.001,0.038,0.052,0.5,***,***,13.9,83.1,NW,1.3
H01,2015,5,21,3,0.001,0.039,0.042,0.6,0.001,0.014,13.9,85,WSW,0.5
H01,2015,5,21,4,0.001,0.036,0.039,0.4,0.002,0.012,14.4,78.2,WNW,0.7
H01,2015,5,21,5,0.001,0.031,0.037,0.5,0.002,0.013,14.7,68.2,WSW,0.4
H01,2015,5,21,6,0.001,0.023,0.036,0.5,0.005,0.013,16.6,59.9,NW,1.4
H01,2015,5,21,7,0.002,0.034,0.037,0.5,0.008,0.017,17.9,52.6,NW,1.7
H01,2015,5,21,8,0.003,0.028,0.037,0.5,0.008,0.019,19.2,45.6,NW,1.8
H01,2015,5,21,9,0.003,0.028,0.037,0.5,0.01,0.016,20.4,39.5,NNW,3.5
H01,2015,5,21,10,0.003,0.029,0.031,0.6,0.017,0.025,22.2,39.9,NW,1.7
H01,2015,5,21,11,0.003,0.047,0.035,0.5,0.016,0.019,23.6,36.6,NW,2.7
H01,2015,5,21,12,0.002,0.023,0.037,0.2,0.014,0.017,24.5,36.5,WNW,1.5
H01,2015,5,21,13,0.001,0.029,0.041,0.2,0.009,0.017,24.3,35,WNW,1.4
H01,2015,5,21,14,0.001,0.026,0.043,0.2,0.007,0.014,24.6,33.2,W,1.5
H01,2015,5,21,15,0.001,0.033,0.04,0.2,0.008,0.016,24.2,36.7,SW,1
H01,2015,5,21,16,0,0.028,0.044,0.2,0.005,0.012,23.7,36,SW,0.9
H01,2015,5,21,17,0,0.024,0.045,0.2,0.003,0.01,22.8,35.8,SW,1
H01,2015,5,21,18,0.001,0.025,0.042,0.3,0.002,0.013,21.9,36.2,W,0.9
H01,2015,5,21,19,0.001,0.02,0.04,0.3,0.002,0.013,21,37.7,WSW,0.5
H01,2015,5,21,20,0.001,0.03,0.039,0.3,0.003,0.014,20.4,38.5,NW,1.3
H01,2015,5,21,21,0.005,0.031,0.035,0.5,0.004,0.016,20.1,35.9,N,1.7
H01,2015,5,21,22,0.002,0.033,0.035,0.4,0.002,0.017,19.7,36.7,NNW,2.8
H01,2015,5,21,23,0.001,0.024,0.036,0.2,0.002,0.014,18.7,39.3,NNE,0.9
H01,2015,5,21,24,0.001,0.021,0.028,0.4,0.002,0.02,17.8,44.8,CALM,0.1
H01,2015,5,22,1,0.001,0.035,0.022,0.7,0.003,0.023,16.1,51.7,CALM,0
H01,2015,5,22,2,0.002,0.028,0.009,0.7,0.013,0.034,16.4,50.7,NW,0.4
H01,2015,5,22,3,0.002,0.036,0.014,0.7,0.008,0.034,17.2,48.2,NNW,2.1
H01,2015,5,22,4,0.003,0.033,0.014,0.7,0.008,0.03,16.2,51.2,N,1.1
H01,2015,5,22,5,0.002,0.035,0.012,0.6,0.008,0.029,14.9,58.9,CALM,0
H01,2015,5,22,6,0.002,0.028,0.009,0.7,0.027,0.029,16.2,60.5,CALM,0
H01,2015,5,22,7,0.003,0.036,0.009,0.8,0.028,0.037,18.1,52.2,ENE,0.6
H01,2015,5,22,8,0.003,0.038,0.01,0.8,0.037,0.036,18.6,47.3,NNE,0.9
H01,2015,5,22,9,0.001,0.034,0.016,0.7,0.03,0.026,19.8,42,N,1.3
H01,2015,5,22,10,0.002,0.03,0.021,0.6,0.03,0.029,21.2,43.6,NNW,0.4
H01,2015,5,22,11,0.004,0.049,0.027,0.7,0.025,0.033,23.3,36.8,NW,0.6
H01,2015,5,22,12,0.007,0.061,0.046,0.5,0.014,0.022,23.5,38.8,W,0.5
H01,2015,5,22,13,0.004,0.038,0.061,0.4,0.002,0.014,23.7,40.8,SW,0.7
H01,2015,5,22,14,0.004,0.041,0.069,0.4,0.001,0.012,24.2,43.6,SSW,1.5
H01,2015,5,22,15,0.002,0.034,0.067,0.3,0,0.005,23.7,49.1,S,1.9
H01,2015,5,22,16,0.001,0.029,0.064,0.2,0,0.005,23.4,47.9,SSW,1.5
H01,2015,5,22,17,0.002,0.022,0.065,0.3,0,0.008,22.5,49.4,SSW,1.4
H01,2015,5,22,18,0.002,0.032,0.067,0.3,0,0.008,21.2,55.8,SSW,1.1
H01,2015,5,22,19,0.002,0.045,0.062,0.3,0,0.01,20.1,64.1,SSW,1.1
H01,2015,5,22,20,0.003,0.031,0.055,0.2,0,0.011,19.4,72,S,0.4
H01,2015,5,22,21,0.002,0.025,0.049,0.3,0,0.011,19.1,74.7,SSE,0.4
H01,2015,5,22,22,0.003,0.042,0.045,0.3,0,0.012,19,73.5,SSE,0.7
H01,2015,5,22,23,0.003,0.042,0.032,0.4,0.005,0.024,19.5,71,NE,0.5
H01,2015,5,22,24,0.001,0.043,0.032,0.4,0.003,0.019,19,66.3,NE,0.3
H01,2015,5,23,1,0.001,0.032,0.027,0.4,0.003,0.02,18.6,61.3,NNE,0.9
H01,2015,5,23,2,0.001,0.029,0.024,0.4,0.003,0.021,18,63.3,NNE,1.2
H01,2015,5,23,3,0.001,0.029,0.02,0.6,0.002,0.022,16.9,64.3,CALM,0.1
H01,2015,5,23,4,0.002,0.048,0.014,0.7,0.009,0.029,16.5,63.7,N,0.3
H01,2015,5,23,5,0.002,0.043,0.011,0.8,0.013,0.033,17.4,68.4,CALM,0.1
H01,2015,5,23,6,0.002,0.047,0.013,0.8,0.024,0.033,18.3,63.9,NNE,0.5
H01,2015,5,23,7,0.003,0.058,0.019,0.7,0.022,0.033,19.3,55.5,NNW,1.4
H01,2015,5,23,8,0.002,0.051,0.022,0.8,0.017,0.027,20.6,55.8,NNW,0.7
H01,2015,5,23,9,0.004,0.06,0.02,0.9,0.025,0.032,21.4,55.2,CALM,0.2
H01,2015,5,23,10,0.006,0.086,0.024,0.9,0.026,0.043,23.3,47.9,N,1
H01,2015,5,23,11,0.005,0.066,0.033,0.6,0.016,0.041,23.7,45.8,W,0.3
H01,2015,5,23,12,0.004,0.068,0.044,0.6,0.011,0.036,24.5,44,SSW,0.4
H01,2015,5,23,13,0.01,0.08,0.055,0.7,0.007,0.031,24.2,47.8,SW,0.6
H01,2015,5,23,14,0.009,0.058,0.061,0.7,0.001,0.022,23.6,49.3,SSW,1
H01,2015,5,23,15,0.005,0.05,0.061,0.4,0.002,0.018,24,49.5,SSW,0.6
H01,2015,5,23,16,0.004,0.049,0.069,0.4,0,0.013,23,49.3,S,1.3
H01,2015,5,23,17,0.003,0.054,0.07,0.4,0,0.012,22.8,60.1,SSW,1
H01,2015,5,23,18,0.003,0.041,0.061,0.4,0,0.012,21.6,63,SSW,1.2
H01,2015,5,23,19,0.003,0.049,0.052,0.3,0,0.015,20.7,65.7,S,0.9
H01,2015,5,23,20,0.003,0.057,0.051,0.4,0,0.016,20.2,72.6,S,1.1
H01,2015,5,23,21,0.003,0.064,0.054,0.4,0,0.012,19.5,74.4,SSE,1.4
H01,2015,5,23,22,0.003,0.051,0.057,0.4,0,0.01,19.5,73.2,SE,1.3
H01,2015,5,23,23,0.002,0.059,0.056,0.4,0,0.011,19.7,68.4,ESE,0.3
H01,2015,5,23,24,0.002,0.048,0.057,0.3,0,0.007,19.6,74.7,SSE,1.6
H01,2015,5,24,1,0.002,0.046,0.044,0.2,0,0.007,19.5,80.5,SSE,1.5
H01,2015,5,24,2,0.001,0.035,0.045,0.2,0,0.005,19.5,72.1,SSW,0.8
H01,2015,5,24,3,0.001,0.018,0.049,0.2,0,0.003,19.1,66.2,SSE,0.4
H01,2015,5,24,4,0.001,0.039,0.046,0.2,0,0.005,19.2,64.2,E,0.8
H01,2015,5,24,5,0,0.019,0.044,0.2,0.001,0.007,18.7,64.7,ESE,0.7
H01,2015,5,24,6,0.001,0.018,0.041,0.3,0.001,0.008,18.8,66,ESE,0.9
H01,2015,5,24,7,0.001,0.025,0.041,0.3,0.002,0.008,20.6,62.6,SE,1.3
H01,2015,5,24,8,0,0.021,0.053,0.2,0,0.003,21.1,56.1,SSE,1
H01,2015,5,24,9,0.001,0.028,0.054,0.3,0.001,0.004,21.1,61,SSW,0.8
H01,2015,5,24,10,0.001,0.025,0.055,0.3,0,0.004,22.3,53.4,S,0.5
H01,2015,5,24,11,0.003,0.028,0.059,0.4,0.001,0.008,23.3,45.9,NW,1.2
H01,2015,5,24,12,0.003,0.032,0.063,0.3,0,0.005,23.5,47.1,SW,0.9
H01,2015,5,24,13,0.002,0.022,0.066,0.3,0,0.004,23.7,45.3,SW,1
H01,2015,5,24,14,0.003,0.025,0.066,0.3,0,0.005,24.6,46.3,SSW,1.3
H01,2015,5,24,15,0.002,0.025,0.064,0.3,0,0.004,23.7,47.5,S,1.9
H01,2015,5,24,16,0.001,0.026,0.065,0.3,0,0.003,23.1,49.5,SSW,2
H01,2015,5,24,17,0.001,0.032,0.066,0.3,0,0.003,21.9,57.4,SSW,1.2
H01,2015,5,24,18,0.001,0.026,0.063,0.3,0,0.004,21.2,62.7,SSW,1.1
H01,2015,5,24,19,0.001,0.026,0.063,0.2,0,0.003,20.3,61,S,1
H01,2015,5,24,20,0,0.028,0.059,0.2,0,0.003,19.8,66.6,SSE,1.2
H01,2015,5,24,21,0.001,0.02,0.057,0.2,0,0.004,19.2,74,SSW,0.7
H01,2015,5,24,22,0.001,0.034,0.054,0.2,0,0.003,18.9,78.4,SSW,0.5
H01,2015,5,24,23,0,0.03,0.054,0.2,0,0.002,18.3,79.9,CALM,0
H01,2015,5,24,24,0.001,0.025,0.052,0.2,0,0.003,18.7,81,CALM,0
H01,2015,5,25,1,0.001,0.025,0.05,0.2,0,0.003,18.4,81.9,CALM,0
H01,2015,5,25,2,0.001,0.027,0.048,0.2,0,0.004,18.7,83.4,CALM,0
H01,2015,5,25,3,0.001,0.036,0.038,0.2,0.003,0.01,18.5,81.1,CALM,0.2
H01,2015,5,25,4,0.001,0.024,0.022,0.3,0.009,0.016,17.6,79.6,N,0.3
H01,2015,5,25,5,0.001,0.032,0.009,0.3,0.009,0.027,17.4,82.9,CALM,0
H01,2015,5,25,6,0.003,0.037,0.007,0.6,0.03,0.025,18.9,78.8,CALM,0.1
H01,2015,5,25,7,0.002,0.048,0.014,0.6,0.012,0.024,20.2,75.3,CALM,0.2
H01,2015,5,25,8,0.003,0.046,0.014,0.8,0.017,0.024,20.9,72.8,ESE,0.5
H01,2015,5,25,9,0.002,0.051,0.023,0.7,0.012,0.023,21.6,68,SSW,0.6
H01,2015,5,25,10,0.002,0.058,0.041,0.4,0.003,0.013,22.9,66.1,S,0.7
H01,2015,5,25,11,0.001,0.035,0.056,0.3,0.001,0.007,23.7,55.2,SSW,1.1
H01,2015,5,25,12,0.001,0.027,0.065,0.3,0,0.003,24.2,55.6,SSW,1.4
H01,2015,5,25,13,0.001,0.044,0.069,0.3,0,0.003,24.6,55,SSW,1.4
H01,2015,5,25,14,0.001,0.034,0.068,0.2,0,0.003,23.4,57.4,SSW,1.1
H01,2015,5,25,15,0.001,0.022,0.066,0.3,0,0.003,23.5,61.1,SSW,1.5
H01,2015,5,25,16,0.001,0.044,0.067,0.3,0,0.004,23.2,63.3,SSW,1.1
H01,2015,5,25,17,0.002,0.03,0.067,0.3,0,0.004,23.3,62.9,SSW,0.9
H01,2015,5,25,18,0.001,0.043,0.07,0.3,0,0.003,22.4,65.5,SSW,0.9
H01,2015,5,25,19,0.002,0.03,0.068,0.3,0,0.004,21.9,68.8,SSW,0.6
H01,2015,5,25,20,0.002,0.035,0.064,0.3,0,0.005,21.4,72,SW,0.7
H01,2015,5,25,21,0.002,0.034,0.056,0.3,0,0.005,20.9,75.7,SW,0.4
H01,2015,5,25,22,0.001,0.032,0.05,0.2,0,0.004,20.6,77.8,CALM,0.1
H01,2015,5,25,23,0.001,0.026,0.048,0.2,0,0.004,20.3,77.6,CALM,0
H01,2015,5,25,24,0.002,0.03,0.043,0.2,0,0.006,19.5,79.5,CALM,0
H01,2015,5,26,1,0.003,0.025,0.038,0.3,0.001,0.011,19.8,79.7,CALM,0
H01,2015,5,26,2,0.002,0.032,0.021,0.3,0.002,0.025,19.5,80.5,CALM,0
H01,2015,5,26,3,0.001,0.038,0.01,0.3,0.014,0.032,19.5,81.8,CALM,0
H01,2015,5,26,4,0.001,0.044,0.001,0.4,0.053,0.044,19.2,81.8,CALM,0
H01,2015,5,26,5,0.001,0.054,0.005,0.3,0.029,0.029,19.2,81.4,NE,0.4
H01,2015,5,26,6,0.001,0.043,0.007,0.4,0.029,0.034,21.1,77.8,CALM,0.1
H01,2015,5,26,7,0.004,0.052,0.018,0.4,0.024,0.029,22.2,70.2,NNW,0.6
H01,2015,5,26,8,0.007,0.066,0.024,0.9,0.012,0.031,23.3,64.5,SW,0.5
H01,2015,5,26,9,0.008,0.06,0.026,1.1,0.018,0.035,25.5,58.6,NNW,1.3
H01,2015,5,26,10,0.007,0.06,0.031,0.8,0.02,0.031,27,52.7,W,0.7
H01,2015,5,26,11,0.003,0.03,0.048,0.3,0.005,0.019,26.9,50.8,SW,0.6
H01,2015,5,26,12,0.002,0.041,0.059,0.4,0.005,0.021,28.8,43.3,WSW,1.2
H01,2015,5,26,13,0.002,0.032,0.067,0.4,0.004,0.015,30.6,34.9,WNW,1
H01,2015,5,26,14,0.003,0.045,0.062,0.4,0.004,0.017,30.6,32,SW,0.8
H01,2015,5,26,15,0.003,0.04,0.063,0.4,0.003,0.015,30.6,30.3,SW,1.1
H01,2015,5,26,16,0.003,0.032,0.06,0.4,0.002,0.018,30.8,27.2,WSW,0.8
H01,2015,5,26,17,0.002,0.034,0.059,0.3,0.002,0.017,30,23.6,WSW,0.7
H01,2015,5,26,18,0.005,0.029,0.056,0.3,0.001,0.018,29,26.2,SW,0.7
H01,2015,5,26,19,0.003,0.03,0.054,0.3,0,0.016,27.3,28.2,SW,0.4
H01,2015,5,26,20,0.002,0.031,0.047,0.4,0,0.018,26,30.5,WSW,0.4
H01,2015,5,26,21,0.001,0.032,0.051,0.4,0,0.012,25.1,34.2,CALM,0.2
H01,2015,5,26,22,0.001,0.031,0.046,0.4,0.001,0.017,23.6,36.3,CALM,0
H01,2015,5,26,23,0.017,0.037,0.032,0.5,0.002,0.031,23.2,38.7,CALM,0
H01,2015,5,26,24,0.004,0.045,0.015,0.3,0.01,0.045,21.8,46.3,CALM,0
H01,2015,5,27,1,0.005,0.041,0.011,0.5,0.013,0.044,21.4,47.3,CALM,0.2
H01,2015,5,27,2,0.008,0.053,0.011,0.8,0.022,0.038,19.8,52,SE,0.3
H01,2015,5,27,3,0.003,0.047,0.006,0.5,0.012,0.037,20,57.2,NE,0.7
H01,2015,5,27,4,0.002,0.053,0.003,0.3,0.017,0.037,19.1,62.4,N,0.4
H01,2015,5,27,5,0.001,0.046,0.011,0.2,0.012,0.029,18.5,64.5,NNW,0.4
H01,2015,5,27,6,0.002,0.047,0.004,0.4,0.028,0.038,20,60.1,CALM,0
H01,2015,5,27,7,0.003,0.061,0.011,0.5,0.034,0.042,22.4,46.3,NW,0.3
H01,2015,5,27,8,0.004,0.079,0.024,0.5,0.017,0.039,24.6,41.1,NNW,0.7
H01,2015,5,27,9,0.006,0.07,0.026,0.7,0.024,0.043,26.4,41.8,NW,0.7
H01,2015,5,27,10,0.008,0.064,0.033,0.8,0.023,0.052,29.4,32.7,NNW,1
H01,2015,5,27,11,0.007,0.05,0.05,0.7,0.019,0.049,30.9,25.9,NW,1.1
H01,2015,5,27,12,0.002,0.053,0.085,0.4,0.003,0.019,30.3,26.5,SW,0.9
H01,2015,5,27,13,0.002,0.051,0.097,0.4,0.001,0.012,31.1,24.7,W,0.5
H01,2015,5,27,14,0.007,0.053,0.104,0.4,0.001,0.014,32.4,23.5,SW,0.8
H01,2015,5,27,15,0.004,0.056,0.098,0.4,0.001,0.012,31.8,23.5,WSW,1
H01,2015,5,27,16,0.002,0.041,0.099,0.4,0,0.008,30.5,37.1,S,1.6
H01,2015,5,27,17,0.003,0.064,0.089,0.3,0,0.011,28.5,43.5,S,1.7
H01,2015,5,27,18,0.002,0.045,0.078,0.2,0,0.012,26.8,50.1,SSE,1.4
H01,2015,5,27,19,0.004,0.052,0.076,0.2,0,0.013,25.4,52.5,S,1.3
H01,2015,5,27,20,0.002,0.056,0.078,0.3,0,0.009,24.4,54.4,SSE,1.7
H01,2015,5,27,21,0.003,0.069,0.071,0.3,0,0.01,23.1,65.9,SSE,1.6
H01,2015,5,27,22,0.002,0.051,0.059,0.3,0.001,0.015,22.5,67.4,SSE,0.8
H01,2015,5,27,23,0.002,0.055,0.065,0.3,0,0.012,22.1,67.7,SSE,1.1
H01,2015,5,27,24,0.002,0.058,0.059,0.3,0.002,0.016,21.9,67.7,NNE,0.3
H01,2015,5,28,1,***,0.068,0.053,***,***,***,20.7,70.5,CALM,0.1
H01,2015,5,28,2,0.001,0.058,0.049,0.3,***,***,20.1,73.3,CALM,0
H01,2015,5,28,3,0.001,0.06,0.033,0.3,0.008,0.023,20.8,72,NNW,0.4
H01,2015,5,28,4,0.001,0.06,0.022,0.3,0.01,0.041,20,65.6,CALM,0.1
H01,2015,5,28,5,0.002,0.071,0.018,0.3,0.011,0.039,19.5,68.2,CALM,0.1
H01,2015,5,28,6,0.002,0.067,0.026,0.3,0.019,0.044,22,67.9,ESE,1
H01,2015,5,28,7,0.002,0.071,0.049,0.3,0.011,0.024,23,68.4,ESE,2.2
H01,2015,5,28,8,0.001,0.064,0.051,0.4,0.006,0.017,23.3,68.8,ESE,2.9
H01,2015,5,28,9,0.001,0.063,0.054,0.4,0.004,0.015,24.5,65.5,SE,2.9
H01,2015,5,28,10,0.001,0.054,0.059,0.3,0.003,0.013,25.5,59.5,SE,2.5
H01,2015,5,28,11,0.001,0.048,0.065,0.3,0.002,0.009,25.5,59.9,SSE,2.1
H01,2015,5,28,12,0,0.051,0.069,0.2,0,0.003,25.7,58.3,S,2
H01,2015,5,28,13,0,0.054,0.069,0.2,0,0.004,25.8,56.4,S,1.9
H01,2015,5,28,14,0,0.056,0.066,0.2,0,0.002,25.4,57.6,S,2
H01,2015,5,28,15,0.001,0.059,0.067,0.2,0,0.004,24.8,60,S,1.9
H01,2015,5,28,16,0.002,0.054,0.062,0.2,0,0.002,24.6,62.1,S,1.8
H01,2015,5,28,17,0.002,0.049,0.057,0.2,0,0.002,23.7,66.7,SSE,2.1
H01,2015,5,28,18,0.001,0.051,0.055,0.2,0,0.003,22.9,70.3,S,2
H01,2015,5,28,19,0.001,0.049,0.05,0.2,0,0.005,22.4,74.3,SE,2.2